Погода в Вольно-Надеждинском

Россия / Приморский край     43°22′18″N   131°59′23″E
темп.,
°C
ветер,
м/с
пор.,
м/с
влажн.,
%
обл.,
%
осадки,
мм/ч
давл.,
гПа
погр.,
м
29 мая, вс
вс2901:00+11ю2289100 0.0 100019
04:00+11ю3491100 0.0 100167
07:00+11юз3590100 0.0 1004106
10:00+12юз5783100 0.0 1005281
13:00+14юз68768 0.0 1005348
16:00+13ююз8117884 0.0 1005324
19:00+11ююз7118384 0.0 1006260
22:00+10ююз698696 0.0 1006193
30 мая, пн
пн3001:00+11ююз61080100 0.0 1007219
04:00+11ю6118078 0.0 1007286
07:00+11ююз4883100 0.0 1008223
10:00+13ю4770100 0.0 1008412
13:00+14ю81268100 0.0 1007457
16:00+13ю71370100 0.0 1006413
19:00+12ююз61270100 0.0 1005348
22:00+11юз5878100 0.0 1007181
31 мая, вт
вт3101:00+10ююз1284100 0.0 100692
04:00+9з3595100 0.8 1006281
07:00+9зюз1298100 3.9 1006119
10:00+10юз2395100 6.3 1007225
13:00+11ююз349092 0.1 1007346
16:00+11ююз568256 0.1 1006445
19:00+11юз588716 0.0 1005358
22:00+9ююз599544 0.0 1007370
1 июня, ср
ср101:00+9ю5994100 0.1 1007405
04:00+10ю5995100 0.4 1006451
07:00+10ююв5895100 0.1 1006391
10:00+10ююв5893100 0.1 1006383
13:00+12ю578368 0.0 1006403
16:00+12ю598816 0.1 1005296
19:00+12ю589241 0.0 1005275
22:00+11ю3796100 0.3 1007235
2 июня, чт
чт201:00+10ю229768 0.1 100622
04:00+10ююз3497100 0.2 100785
07:00+11ю1396100 0.1 100897
10:00+12юз2294100 0.4 1010154
13:00+14юз4582100 0.0 1010429
16:00+13ююз688067 0.0 1011426
19:00+12ююз588353 0.0 1011278
22:00+10ю5109297 0.0 1014293